Location: Newark
(49.3000°N, 9.4667°E)
Time: 03:04:54
(UTC+00:00)

Vanguard 1 Rocket - Visible Passes

Search period start: 26 May 2019 00:00
Search period end: 05 June 2019 00:00
Orbit: 652 x 4224 km, 34.3° (Epoch: 24 May)

Date Brightness Start Highest point End Pass type
(mag) Time Alt. Az. Time Alt. Az. Time Alt. Az.
26 May 9.1 00:27:05 14° SE 00:27:05 14° SE 00:29:32 10° ESE visible
26 May 9.1 02:45:02 10° SW 02:50:14 26° S 02:58:18 10° SE visible
27 May 8.6 01:37:05 17° SSW 01:39:27 21° SSE 01:45:17 10° ESE visible
28 May 9.0 00:29:50 15° SSE 00:29:50 15° SSE 00:32:24 10° SE visible
29 May 8.6 01:39:53 17° SSW 01:42:06 21° S 01:47:30 10° SE visible
30 May 8.9 00:32:42 15° SSE 00:32:42 15° SSE 00:35:04 10° SE visible
31 May 8.6 01:42:51 16° SSW 01:44:48 19° S 01:49:36 10° SE visible
01 Jun 8.9 00:35:46 14° SSE 00:35:46 14° SSE 00:37:35 10° SE visible
02 Jun 8.7 01:46:03 15° SSW 01:47:31 16° S 01:51:29 10° SE visible
03 Jun 9.1 00:39:06 12° SSE 00:39:06 12° SSE 00:39:56 10° SE visible
04 Jun 8.8 01:49:33 13° SSW 01:50:14 13° S 01:52:59 10° SSE visible
